Theta_e
315 318 319 317 316 312 316 318 315 318 317 316 315 315 316 314 315 314 322 326 330 329 335 341 342 344 341 340 335 335 334 336 338 338 340 340 340 341 341 339 335 332 334 334 324 322 321 322 323
317 319 318 308 312 314 316 313 318 317 316 315 315 315 316 317 315 318 323 326 329 333 334 338 341 342 342 343 339 336 336 338 341 341 338 338 339 340 339 334 333 332 333 334 327 319 317 320 322
318 317 311 309 308 313 315 314 315 315 315 315 316 315 315 317 317 319 322 327 329 332 334 336 340 342 343 344 343 341 339 339 340 340 337 335 335 337 336 335 334 331 329 329 328 322 317 313 318
317 312 306 311 316 315 314 313 313 316 316 314 314 316 312 316 316 321 325 327 328 332 335 335 338 341 342 343 343 342 340 340 340 337 336 338 336 335 335 334 333 332 330 327 327 323 317 312 309
312 306 311 313 315 313 310 313 313 315 315 315 314 315 314 315 322 324 324 326 327 332 334 335 336 339 342 343 342 342 341 339 337 336 339 337 336 332 331 331 332 331 329 329 326 322 315 305 302
311 305 311 314 315 313 311 310 313 314 312 314 315 314 314 316 320 322 324 326 328 331 334 334 335 337 342 342 342 342 340 338 337 337 339 336 334 333 330 329 327 329 328 327 325 320 313 302 300
311 307 310 313 314 313 313 308 313 313 311 314 313 314 312 314 316 320 323 324 326 331 334 334 334 336 338 341 341 341 340 338 336 337 337 334 333 333 330 329 327 328 327 326 323 319 310 301 300
307 307 313 312 312 315 312 311 311 312 314 309 312 311 312 311 315 317 324 324 325 328 333 334 334 335 337 339 340 340 339 338 336 337 337 335 334 333 331 330 328 325 324 326 322 319 309 301 300
306 307 308 311 311 313 312 313 311 309 311 309 310 311 310 313 316 318 322 324 325 327 331 334 335 336 338 339 340 340 338 336 336 337 337 335 335 334 332 330 329 326 323 322 321 319 311 302 300
307 305 307 309 311 314 313 312 312 312 309 311 310 309 309 310 312 314 313 312 314 316 322 328 333 336 337 344 342 340 338 337 335 336 336 336 335 333 329 329 327 327 325 322 320 319 313 304 300
311 309 309 313 312 312 313 312 310 312 312 310 311 308 303 303 304 304 304 304 304 306 308 312 323 332 336 341 338 337 340 338 336 335 335 334 334 333 329 328 327 326 325 323 321 318 316 308 301
315 313 312 313 313 312 313 311 312 310 311 307 306 303 303 301 301 301 301 302 303 305 306 308 313 324 332 339 336 334 334 335 337 336 334 332 331 333 330 329 328 327 325 324 321 319 316 313 307
315 314 311 311 310 309 309 310 311 309 306 302 303 302 300 300 299 300 300 301 302 304 307 310 309 315 325 332 338 336 334 333 332 335 335 333 331 330 330 329 328 327 325 324 323 320 317 315 311
310 310 309 309 310 310 311 310 310 306 302 303 303 300 299 298 297 297 298 298 301 304 307 313 315 310 318 327 333 336 336 334 331 331 334 334 331 331 330 328 327 325 324 324 323 321 318 316 314
310 310 308 308 309 309 307 311 309 308 301 302 301 299 298 297 296 295 296 297 299 303 308 315 319 315 314 325 330 332 332 332 332 332 331 331 330 329 328 330 328 325 324 325 324 322 320 317 315
310 309 310 310 310 310 310 313 311 303 303 302 299 297 297 296 295 295 296 298 300 304 307 314 321 323 324 326 328 330 330 329 328 328 328 328 329 330 330 328 327 325 326 325 322 321 319 318 315
306 311 309 309 310 310 310 311 310 302 302 300 297 296 296 295 294 294 295 297 299 301 306 312 319 322 322 325 325 325 325 325 324 325 324 323 323 324 324 324 324 324 323 322 320 320 317 316 315
310 309 308 309 310 310 310 310 308 301 301 298 296 295 295 294 294 293 294 296 298 300 302 306 312 316 318 318 317 316 316 315 316 316 318 320 321 321 320 319 318 318 316 315 315 314 314 313 312
308 309 310 308 309 311 309 309 306 302 299 298 297 296 295 294 293 293 292 294 296 299 302 304 307 308 314 316 312 309 306 305 309 309 310 311 312 314 315 314 314 314 312 311 310 310 309 309 307
308 310 309 309 309 309 309 309 304 301 299 298 297 296 295 294 292 292 292 293 294 295 298 300 303 305 306 307 304 302 300 299 300 301 302 304 305 306 307 307 306 307 308 308 306 305 304 304 304
308 308 310 311 309 307 307 308 306 300 299 298 296 295 295 294 293 291 291 291 292 294 296 297 299 302 303 303 303 302 300 298 297 295 295 296 298 299 300 301 301 301 301 300 301 302 302 301 301
311 309 310 312 310 312 307 312 308 303 300 298 296 295 294 293 292 291 290 290 291 292 294 294 296 297 298 299 300 299 294 289 287 288 289 290 291 291 291 293 294 296 296 297 297 297 298 300 299
313 308 309 309 308 308 309 309 306 302 302 299 296 295 293 292 291 290 289 289 289 290 291 290 291 292 292 292 292 289 287 286 286 286 286 285 285 285 285 286 286 286 286 288 290 293 295 295 295
306 308 307 305 306 311 310 311 310 306 305 300 297 295 294 292 291 290 289 288 288 288 288 288 288 287 288 288 287 287 286 286 286 286 286 285 285 285 285 285 285 285 285 285 285 285 285 286 289
309 311 315 313 311 315 307 308 309 306 303 301 298 295 293 292 290 289 289 288 288 288 287 287 287 286 286 286 286 286 286 286 285 285 285 285 285 285 284 285 284 284 284 285 285 284 284 284 284
309 311 314 313 311 311 310 314 314 302 298 298 297 295 293 291 290 289 289 288 287 287 287 286 286 285 285 286 285 285 286 286 286 286 285 285 284 284 284 284 284 284 284 284 284 283 283 284 283
309 311 308 309 296 308 311 309 305 300 298 296 295 293 292 291 290 289 290 288 287 286 286 286 286 285 285 285 286 286 286 286 286 286 285 285 284 283 283 283 283 283 282 282 282 282 282 282 282
308 307 313 308 308 308 308 310 308 303 300 296 295 294 293 291 290 289 289 289 287 286 286 286 286 286 286 286 286 286 286 286 286 286 285 285 284 283 283 282 282 282 281 281 281 280 281 280 280
308 310 307 308 305 305 303 305 304 305 300 298 296 295 294 292 291 289 289 289 288 287 286 286 286 286 286 286 286 286 286 286 286 286 285 284 283 282 282 281 281 280 279 279 279 279 279 279 279
306 308 308 312 309 305 306 309 301 302 300 298 297 296 293 292 291 289 289 289 288 287 287 286 286 286 286 286 286 286 286 286 286 286 285 284 283 282 281 280 280 280 279 279 278 278 278 278 278
Wind_Speed
8 7 4 4 4 5 1 1 1 2 2 1 2 3 2 3 3 3 4 10 2 15 24 23 22 19 16 15 16 15 13 12 10 10 10 9 9 8 7 4 4 5 6 6 6 7 7 6 5
7 4 4 3 5 4 4 3 2 2 1 1 2 2 3 1 1 5 2 11 1 14 22 23 21 19 17 15 14 14 13 11 9 8 8 8 8 6 4 3 4 4 6 6 5 5 5 4 3
3 4 4 4 3 3 3 4 2 2 1 1 2 0 3 1 2 2 1 10 5 14 18 22 21 20 18 18 16 15 14 12 10 9 7 5 5 5 3 2 3 2 4 4 3 4 4 2 1
2 5 4 4 2 2 3 3 2 3 1 2 1 1 3 1 1 3 2 11 7 12 16 20 21 21 19 17 18 16 15 12 10 9 8 8 5 7 6 4 3 0 3 3 3 4 4 3 2
6 3 4 4 2 3 3 2 0 2 2 1 1 2 3 2 2 1 2 8 6 10 13 17 20 20 19 18 17 18 16 15 13 11 13 10 6 4 5 4 4 4 4 2 4 5 6 5 2
4 3 4 1 3 4 4 2 1 0 3 4 2 1 3 3 1 1 3 3 5 9 12 14 19 21 20 18 17 17 16 15 13 13 13 7 8 7 5 4 6 4 3 3 4 6 6 4 2
6 4 4 3 2 3 2 6 3 0 3 2 1 3 3 4 3 1 4 4 5 9 12 14 17 21 22 20 19 18 17 15 14 14 12 10 10 10 7 4 2 3 3 3 5 6 6 3 1
5 4 3 2 2 2 2 5 2 2 2 5 1 2 4 4 8 3 4 4 5 8 12 14 15 19 21 22 22 21 19 17 16 15 14 14 14 11 8 6 3 3 4 3 6 7 6 2 1
3 4 1 3 5 2 2 5 1 3 1 5 2 2 5 10 6 1 2 3 4 5 9 13 16 18 20 21 22 21 19 18 17 17 17 16 15 12 8 8 5 5 7 5 7 7 7 3 3
5 3 6 3 3 2 3 1 3 4 4 2 3 4 14 10 9 7 9 11 10 10 10 14 17 19 19 19 20 21 20 19 18 18 16 16 15 13 12 10 8 8 8 6 8 9 9 5 4
2 4 3 2 3 1 3 3 2 1 6 3 1 8 12 17 18 17 14 13 14 13 14 14 16 20 20 19 18 19 20 20 19 19 18 16 15 14 15 12 11 10 9 9 10 11 11 8 7
0 4 4 3 1 1 3 3 4 5 2 2 4 7 7 11 14 18 19 20 21 17 14 8 14 19 23 21 18 17 18 19 20 20 19 18 17 16 15 14 12 11 10 11 11 12 12 11 10
3 3 3 4 5 5 3 5 4 8 4 9 11 13 10 11 16 18 19 21 24 23 20 14 8 17 22 23 20 16 14 15 17 20 18 18 18 17 16 15 14 12 12 13 13 14 14 13 12
1 3 6 6 4 3 4 1 1 5 7 10 11 10 10 14 16 19 26 26 26 24 22 18 10 9 17 20 21 17 13 11 12 15 18 18 18 16 17 17 16 14 16 14 11 13 14 14 14
1 5 7 5 2 5 6 2 6 3 9 9 8 8 8 11 18 19 20 21 23 22 21 21 16 5 7 12 13 12 9 7 6 7 9 13 14 17 18 18 17 15 15 14 13 13 14 15 16
3 3 4 3 1 2 4 7 0 8 8 8 8 8 8 11 15 20 19 20 22 23 24 23 20 15 11 6 5 5 3 2 4 4 6 8 10 13 14 14 13 13 13 13 14 12 12 15 17
5 3 5 8 2 1 2 5 1 12 9 8 7 7 7 9 17 21 20 20 22 24 26 26 26 26 23 20 18 17 15 15 15 13 13 12 10 7 6 7 8 10 12 13 13 11 11 14 15
6 4 4 5 1 3 1 7 4 9 10 7 7 7 7 8 10 17 19 20 23 25 28 30 27 28 28 29 28 28 27 26 24 23 20 17 15 13 12 12 12 10 9 7 7 9 11 13 15
4 4 5 3 3 0 7 7 4 5 7 7 6 6 6 7 11 18 22 24 27 29 30 30 30 28 24 25 28 28 30 29 29 27 24 24 22 20 18 17 16 15 15 15 13 12 12 13 15
2 2 5 5 2 6 4 6 3 5 3 4 5 6 6 5 8 16 21 26 29 29 31 31 29 29 29 29 26 25 28 30 27 26 26 24 22 21 20 19 20 18 15 14 15 15 13 10 13
5 6 4 7 3 1 4 6 4 3 5 5 5 4 4 5 5 6 14 23 26 30 31 30 31 28 25 23 22 22 25 26 27 28 28 27 25 23 20 18 17 17 17 18 16 15 12 10 12
5 8 5 4 4 4 1 5 3 5 4 4 5 5 5 4 3 6 12 17 21 24 27 28 30 30 29 28 28 29 31 30 27 28 27 27 27 27 26 25 23 21 19 18 17 15 14 11 9
6 5 5 2 3 1 2 0 5 5 5 6 6 5 5 6 6 5 9 12 16 20 24 24 28 29 28 29 30 33 34 30 27 28 28 28 28 28 27 27 27 27 27 25 22 19 18 17 14
7 6 6 4 3 1 6 6 4 5 5 6 6 6 6 6 5 6 8 11 15 16 20 23 27 28 28 29 29 30 29 27 27 26 26 25 24 25 25 24 24 23 24 24 22 21 21 21 18
4 5 1 3 1 5 2 1 7 3 2 8 14 11 8 6 6 5 7 9 11 15 17 20 24 26 24 26 26 26 25 25 25 24 23 22 22 23 22 21 22 22 21 19 20 21 20 20 18
6 6 5 6 3 3 2 6 5 3 3 6 11 9 7 7 6 6 9 10 12 14 16 18 21 23 21 22 22 21 21 22 21 20 19 19 19 18 18 19 19 19 20 20 20 21 20 19 19
5 4 4 6 2 2 4 5 2 1 2 5 9 8 9 8 8 8 12 11 12 13 14 15 17 18 17 18 17 18 17 17 18 17 16 16 15 16 17 17 18 20 20 21 22 23 24 23 23
4 7 3 2 2 4 5 5 5 6 8 6 9 11 9 7 8 8 14 14 13 13 13 13 13 15 15 14 14 14 14 14 14 14 15 15 15 15 17 18 20 21 23 25 26 28 27 27 29
3 3 3 4 4 5 2 5 6 7 10 14 13 12 11 11 9 8 16 16 15 14 14 13 13 12 12 11 10 9 9 10 11 12 14 15 16 18 20 23 26 28 30 30 31 31 30 32 33
0 6 6 5 5 2 2 8 4 4 11 14 13 11 8 7 8 10 17 19 18 17 15 15 13 12 10 8 6 4 4 6 8 11 13 14 16 17 20 24 27 29 31 32 32 33 33 32 32
Wind_Direction
339 338 346 41 56 66 354 304 261 328 13 206 120 123 157 172 152 200 331 178 105 174 178 178 179 183 184 180 177 176 172 167 161 154 141 131 137 134 133 115 81 58 64 63 59 61 61 65 79
342 344 47 73 83 66 279 259 230 210 244 151 112 84 48 333 257 289 12 182 153 176 179 183 182 182 185 191 189 183 180 175 166 160 155 152 150 148 152 116 83 67 68 61 49 47 52 54 75
339 22 79 92 105 151 191 237 240 301 276 64 83 129 152 246 265 262 295 181 176 181 187 189 187 184 189 195 195 191 189 186 183 176 168 157 172 166 174 132 107 41 9 48 28 16 20 17 291
3 24 41 80 120 229 211 317 257 331 36 60 127 44 326 248 318 294 309 184 178 180 192 195 194 190 190 197 203 199 196 192 196 190 177 162 161 178 181 168 162 127 322 343 350 341 345 329 276
44 53 55 83 289 274 279 341 146 316 304 292 33 337 294 20 353 57 118 176 195 188 192 198 200 198 196 200 207 205 203 201 199 195 184 188 220 206 204 212 234 266 289 324 307 321 331 333 304
40 90 63 156 277 298 296 6 308 28 322 329 37 6 266 335 191 121 156 181 199 205 201 203 206 206 203 206 212 218 213 210 206 202 192 207 241 246 228 246 290 251 252 286 297 322 333 344 9
105 78 171 175 260 315 287 329 70 334 326 339 239 336 292 50 345 197 196 198 206 204 214 213 212 211 211 210 215 223 223 221 217 211 203 223 232 250 246 267 299 207 254 283 293 316 328 338 11
102 90 118 248 202 253 323 358 161 92 297 314 242 334 328 343 349 226 207 224 226 222 223 225 223 221 219 217 217 222 224 225 218 214 213 228 229 239 251 263 308 249 263 269 286 309 320 297 284
117 62 173 227 155 245 348 19 285 339 310 346 337 97 332 347 354 289 253 284 289 268 246 236 236 233 228 228 228 229 228 226 221 218 222 229 234 244 254 270 288 301 308 292 280 303 309 294 275
78 104 220 211 209 252 321 124 317 9 356 287 339 334 350 345 355 7 6 346 325 306 283 263 243 237 234 230 231 233 231 227 222 222 226 232 240 248 256 263 277 296 299 303 293 305 304 291 274
137 184 212 267 238 296 297 303 210 288 302 199 347 313 16 31 38 37 32 19 354 336 293 264 256 244 235 228 230 232 231 233 230 230 231 237 237 247 252 256 266 282 291 298 293 298 306 301 279
44 239 200 271 140 344 274 310 273 176 202 176 33 53 37 24 22 17 10 6 1 357 349 316 249 238 236 231 228 231 233 235 235 236 240 241 243 245 241 244 256 267 289 295 295 297 298 298 289
176 249 199 260 274 253 321 249 246 262 90 78 69 53 42 32 18 20 16 12 8 4 358 348 287 237 231 230 223 219 228 241 248 244 237 242 248 252 247 247 261 268 286 291 299 295 294 295 291
232 300 290 287 252 256 218 264 158 60 107 69 56 51 39 31 15 16 16 11 14 9 7 5 350 247 224 228 228 228 233 240 246 254 249 246 254 260 255 252 255 267 277 277 286 296 288 290 290
35 334 324 255 276 221 157 247 219 80 80 74 56 53 48 33 28 22 17 19 18 23 20 21 26 39 199 217 224 227 239 263 286 282 271 264 264 255 262 261 254 264 268 267 275 281 285 291 291
31 51 353 315 123 345 157 259 162 47 79 66 51 37 34 27 23 24 29 32 32 37 41 48 51 64 83 118 149 163 146 88 44 1 329 304 277 264 259 261 260 270 267 267 266 273 282 297 294
5 234 210 315 40 140 132 268 287 5 72 74 55 39 32 22 21 23 31 37 41 45 49 58 68 77 89 99 106 101 92 80 68 60 53 45 30 10 334 318 309 296 279 280 268 278 287 295 301
200 213 239 237 307 40 340 268 324 27 71 74 64 46 37 31 13 18 46 53 52 55 58 63 71 81 88 91 89 85 80 73 67 61 57 53 49 44 37 28 20 10 353 333 309 301 299 305 308
145 180 214 247 224 193 243 249 339 66 71 75 73 67 51 34 8 31 44 57 65 65 66 66 71 76 88 87 83 77 76 72 67 62 58 56 52 49 46 44 39 33 28 20 5 354 343 335 335
156 168 250 284 284 184 313 281 76 43 57 102 107 79 64 47 22 27 49 62 65 67 70 69 72 77 80 84 89 88 82 76 73 67 61 57 52 49 47 46 44 40 35 30 24 17 1 347 350
205 196 201 221 346 345 341 286 182 54 97 87 77 99 77 69 51 16 40 59 64 67 68 71 74 77 84 92 99 97 90 80 70 63 61 57 55 52 49 48 48 46 43 39 30 22 17 5 350
218 204 174 177 122 225 60 279 243 172 149 136 145 141 127 98 60 45 55 64 69 73 81 81 82 83 85 87 90 89 86 84 80 77 73 67 63 59 55 51 47 45 41 38 35 30 23 5 360
216 118 150 129 127 56 251 292 256 140 201 197 196 189 166 149 135 105 77 77 79 81 84 85 87 85 86 89 91 91 89 88 83 77 72 66 64 62 58 54 51 48 46 43 37 31 29 25 13
139 79 52 55 92 281 229 184 254 196 195 164 167 193 188 169 160 128 111 101 90 89 90 89 86 85 86 86 86 86 88 83 76 68 65 59 55 52 49 47 47 47 42 36 35 36 35 31 24
104 111 298 341 24 231 5 188 250 177 149 180 179 186 188 177 169 161 137 121 114 105 99 96 95 92 89 88 87 86 85 81 76 69 62 55 49 44 40 38 36 34 34 30 24 19 22 20 17
177 164 156 223 210 261 342 233 260 261 301 239 164 166 167 180 183 176 167 152 133 119 114 108 103 100 94 90 88 85 81 79 74 67 58 54 47 39 31 28 26 24 20 13 11 5 3 0 355
182 179 157 103 39 21 234 282 275 43 45 117 143 153 185 194 189 184 181 169 152 139 132 128 119 112 106 99 96 89 85 78 70 62 54 46 37 29 24 18 15 11 5 0 355 351 347 344 339
152 158 85 11 178 256 279 273 238 223 202 168 168 191 198 201 189 189 188 179 171 157 148 141 133 127 121 116 105 94 80 67 57 45 39 30 23 15 8 5 0 357 353 350 346 342 339 335 331
135 174 67 123 149 175 258 253 210 219 177 182 198 200 199 198 196 193 194 190 182 175 167 160 154 146 140 131 119 102 79 57 43 31 22 11 4 1 357 355 352 349 346 344 341 339 335 331 327
164 194 161 164 216 253 146 257 3 252 179 183 197 200 204 199 198 196 198 193 190 190 186 181 173 167 161 151 136 112 64 30 14 10 3 355 351 350 347 344 341 341 340 337 337 333 331 327 323